User: anonymous   Login
Location: Unspecified
(0.0000°N, 0.0000°E)
Time: 16:33:41
(UTC+02:00)
Language:

Milstar 3 Cent rocket - Orbit

View from above orbital plane
View from above orbital plane
View from above satellite
View from above satellite

Ground track
Ground track

The orbit data is extracted from the following two-line orbital elements,

1 25725U 99023B   16142.07449777 0.00000050  00000-0  11220-3 0    00
2 25725  28.3141  83.3489 2386418 124.5130 235.4864  9.67234238    01
Epoch (UTC): 21 May 2016 01:47:16
Eccentricity: 0.2386418
inclination: 28.3141°
perigee height: 706 km
apogee height: 5147 km
right ascension of ascending node: 83.3489°
argument of perigee: 124.5130°
revolutions per day: 9.67234238
mean anomaly at epoch: 235.4864°
orbit number at epoch: 0

The dashed part of the orbit path shows where the satellite is in the earth's shadow,  

DLR